Wetbulb
70.27 70.78 70.56 70.36 70.69 70.38 69.46 69.29 69.34 68.67 68.38 69.45 71.38 71.79 72.25 73.23 72.98 72.10 71.77 72.40 71.44 71.25 71.47 70.40 69.56 68.68 68.51 66.93 64.60 63.32 61.37 59.98 58.01 59.32 61.14 62.84 63.59 64.31 65.38 66.54 65.90 63.89 63.20
69.95 70.41 70.22 70.16 70.34 71.04 71.54 69.54 69.44 69.13 69.83 69.99 70.12 71.54 71.96 72.68 73.29 72.56 71.81 72.34 72.26 71.64 71.83 71.19 70.93 71.11 68.55 67.81 66.14 64.34 62.96 61.54 60.32 59.21 59.46 62.01 62.56 63.52 64.65 64.48 65.87 65.34 63.40
69.21 69.77 70.31 70.07 69.75 69.27 69.86 71.82 71.02 69.54 69.24 68.49 71.20 71.87 71.84 72.09 72.61 73.24 72.72 72.20 71.91 72.26 72.31 71.84 72.10 70.49 70.28 69.61 67.54 66.59 64.52 63.70 61.87 60.17 62.61 60.71 63.19 63.13 63.15 63.35 63.54 63.98 64.13
69.40 69.36 69.39 70.19 70.59 70.88 70.29 69.68 70.91 72.00 70.93 69.46 69.40 71.01 72.76 72.87 72.94 73.02 73.42 72.68 72.11 72.28 72.62 72.83 72.66 71.71 71.56 71.18 69.96 68.94 67.65 64.86 62.46 62.05 63.09 62.63 62.10 63.56 63.43 62.44 62.34 63.04 64.15
69.43 69.37 69.39 70.15 71.06 71.45 71.55 71.40 70.54 70.78 71.92 71.60 70.96 70.32 72.26 73.28 73.63 73.07 73.04 73.11 72.95 72.53 72.63 72.62 72.75 72.76 71.23 70.83 71.59 70.64 68.85 66.58 66.63 64.22 64.59 61.44 62.44 62.17 62.84 63.85 63.82 64.83 64.63
69.77 69.58 70.27 70.29 70.73 71.40 72.33 72.41 71.91 70.89 70.61 71.42 71.16 71.08 70.71 72.62 68.83 68.32 72.11 72.69 72.38 72.39 72.27 72.74 72.97 71.74 71.08 68.30 67.82 68.71 70.52 69.03 67.98 66.97 66.61 65.79 65.35 64.41 65.26 64.92 63.10 62.61 60.99
69.79 70.26 70.62 70.92 70.71 70.86 72.16 73.12 73.14 72.27 71.54 70.47 71.00 71.30 71.08 71.77 66.22 66.08 68.31 73.34 72.62 72.14 71.94 72.17 72.04 73.05 70.48 72.77 68.97 66.51 66.76 66.24 68.27 71.35 68.39 67.39 67.11 66.97 65.91 64.36 64.84 64.04 63.62
69.35 70.13 70.82 71.02 71.30 72.04 71.72 71.91 72.64 73.53 72.99 72.23 71.49 71.61 71.52 71.92 65.49 64.55 66.40 72.06 72.87 72.95 72.86 72.86 72.54 72.63 72.54 72.12 72.35 72.33 70.69 70.57 69.57 69.15 70.49 71.59 72.17 70.83 67.69 66.21 65.73 66.11 65.99
68.56 69.51 70.42 71.29 71.25 71.50 72.31 72.50 72.91 72.98 73.49 73.73 73.14 72.34 72.26 72.73 63.28 62.88 64.94 71.66 72.53 72.78 73.25 73.23 73.08 72.81 69.29 65.53 71.70 72.09 72.28 72.77 69.31 65.69 65.69 66.01 65.50 65.31 65.96 66.73 64.64 64.08 63.35
67.95 69.73 70.70 71.11 71.46 71.77 72.17 72.96 73.50 73.78 73.48 74.00 74.04 74.19 70.52 72.81 64.40 61.47 63.57 71.96 71.89 72.49 73.26 73.68 67.00 70.55 64.90 62.93 70.75 72.32 72.02 72.95 73.27 72.86 70.60 67.20 65.07 67.84 64.95 67.54 67.74 64.98 64.51
67.56 67.95 68.89 71.64 71.94 72.62 73.08 73.57 73.65 73.68 74.00 73.85 73.87 74.50 74.52 73.04 72.92 60.27 59.85 72.57 73.08 73.01 72.97 73.33 73.92 63.59 60.35 59.65 61.32 72.85 72.43 73.13 72.77 72.66 73.17 73.18 71.75 70.60 70.02 68.94 67.63 67.04 65.86
69.62 68.94 69.49 69.81 71.59 72.95 72.75 73.36 73.58 73.70 73.52 73.43 73.35 73.66 74.53 74.85 65.23 61.05 58.81 60.33 68.76 73.89 73.56 74.43 73.78 62.32 58.31 57.26 58.97 62.66 62.10 61.85 70.63 71.42 72.12 72.30 70.88 69.93 69.93 69.14 68.60 67.92 68.60
69.44 70.00 70.23 70.48 70.95 71.37 71.92 72.46 72.83 73.16 72.93 72.99 73.13 72.95 73.32 74.42 74.54 60.33 57.79 57.97 59.54 69.09 75.02 71.62 64.34 58.15 55.07 57.51 56.44 57.90 58.69 65.79 67.08 67.49 68.14 69.23 70.58 72.50 70.54 67.99 67.58 66.22 66.29
69.58 68.50 69.93 69.94 70.35 71.62 72.39 72.50 72.61 72.83 72.82 72.88 73.04 72.99 73.39 73.69 74.11 72.98 67.24 64.63 60.24 63.71 65.34 69.34 65.38 64.13 61.59 64.71 62.96 60.08 63.62 65.27 65.97 66.54 67.20 67.76 69.57 68.37 66.56 66.92 65.13 64.34 62.25
68.97 69.72 69.63 70.40 69.52 69.95 70.47 68.37 72.26 73.13 70.45 73.20 73.48 73.75 73.43 73.21 73.54 68.69 69.43 72.01 71.31 67.94 67.96 69.80 67.33 68.05 67.69 67.51 66.76 66.36 66.06 65.52 64.61 65.29 66.58 66.56 65.84 64.59 64.05 64.55 64.37 62.21 60.77
67.14 67.47 67.74 68.58 69.88 70.07 67.24 61.91 48.14 48.16 47.64 47.27 49.45 62.25 72.66 62.74 58.69 55.25 53.62 53.62 54.52 52.53 66.26 68.94 69.95 69.59 69.05 67.65 66.58 65.68 64.75 64.00 64.52 64.75 64.91 64.55 63.48 63.48 62.21 61.85 60.68 61.22 61.06
65.42 65.85 67.13 66.42 68.64 68.98 65.88 65.52 65.05 54.89 45.81 44.37 43.83 46.37 47.27 57.61 50.54 49.63 49.09 48.00 46.73 54.89 69.28 69.43 69.93 68.35 66.58 66.04 65.50 63.32 63.42 62.45 63.99 64.16 64.05 63.74 63.10 62.92 61.77 61.69 60.60 60.28 58.97
64.99 59.78 65.52 66.93 67.92 69.43 68.57 67.04 66.47 65.25 64.86 63.52 49.09 46.73 44.55 46.55 45.64 45.46 44.92 51.44 59.40 60.08 66.24 66.92 66.56 65.50 64.07 62.78 61.69 61.69 60.77 62.80 61.45 63.18 63.32 63.76 63.48 62.74 61.67 60.58 59.90 58.42 56.55
65.28 65.52 66.59 66.97 68.51 68.48 69.95 67.65 66.65 65.52 64.66 61.53 58.25 52.53 45.90 43.10 44.74 46.73 49.27 66.91 66.36 64.77 63.03 62.76 62.71 61.65 60.54 59.98 59.84 59.46 59.37 58.87 59.28 60.06 62.59 63.10 63.10 62.33 61.31 60.98 59.08 53.89 52.76
64.99 62.30 61.94 65.43 66.25 68.62 69.95 68.33 66.04 64.21 63.14 61.95 62.29 61.31 58.57 58.97 62.74 62.42 62.38 62.95 64.37 63.76 62.17 61.20 60.10 59.53 59.01 58.83 58.73 58.15 58.05 59.34 60.95 59.46 62.21 62.94 62.72 62.42 61.23 60.28 57.93 55.19 53.64
65.39 65.59 64.25 65.25 64.73 67.20 69.48 67.92 66.79 64.30 62.90 61.61 61.06 59.88 53.07 62.89 61.04 61.94 62.23 62.43 62.30 61.93 61.45 60.31 59.90 59.71 59.37 59.39 61.82 61.36 60.86 60.75 61.47 59.17 59.32 62.37 61.44 60.60 60.22 59.46 57.16 54.77 52.94
65.59 66.03 66.43 65.80 65.19 65.93 69.19 67.53 65.34 63.97 62.67 61.17 60.38 57.32 47.46 62.33 62.48 62.07 62.40 62.38 62.19 62.09 61.94 60.45 59.85 59.49 59.37 59.42 59.19 59.23 59.41 60.86 61.42 60.93 58.33 58.95 60.02 58.47 56.84 55.58 54.84 53.44 51.55
64.75 65.87 66.43 64.86 64.42 61.03 64.10 63.81 62.88 62.14 60.96 60.88 60.44 59.41 59.76 61.35 61.75 61.55 61.65 61.80 61.43 60.58 60.65 60.97 60.17 59.77 59.99 60.15 60.13 59.93 58.89 58.59 59.23 59.45 59.01 58.49 57.85 56.84 55.40 54.20 53.98 51.72 49.60
65.04 66.26 63.49 62.85 61.50 62.17 61.85 60.51 59.73 56.40 60.46 60.65 60.74 60.82 60.44 59.61 59.28 58.27 58.25 59.53 60.17 60.01 59.49 60.38 60.53 60.16 60.49 60.23 60.15 60.31 60.41 60.21 60.11 60.13 60.24 59.13 57.91 54.21 55.00 53.81 52.92 51.79 50.37
66.06 63.05 60.78 59.10 58.10 57.22 57.12 57.41 57.12 57.08 56.54 55.94 54.73 54.54 53.96 52.43 50.58 50.29 50.08 49.53 48.85 47.84 45.28 44.48 46.00 50.90 50.18 49.34 49.64 51.47 41.59 37.94 54.19 52.35 59.39 59.17 58.57 56.90 55.66 55.59 54.26 52.40 51.04
58.10 57.70 57.08 57.00 56.60 55.64 54.08 52.53 51.41 50.54 49.99 49.88 49.43 49.35 48.71 47.85 47.33 47.03 46.23 45.30 44.49 43.26 41.92 40.79 40.22 41.00 41.28 40.05 37.84 34.41 31.81 33.13 47.24 44.54 58.28 59.40 58.53 57.32 55.78 56.37 56.23 54.75 53.19
MSLP
1009.11 1009.86 1010.76 1011.39 1011.98 1012.64 1013.14 1013.63 1014.13 1014.61 1015.03 1015.47 1015.75 1016.03 1016.30 1016.37 1016.62 1017.06 1017.38 1017.60 1017.95 1018.07 1018.30 1018.53 1018.60 1018.83 1018.94 1019.17 1019.51 1019.72 1019.96 1020.31 1020.31 1019.24 1018.97 1018.39 1018.49 1018.38 1018.20 1018.28 1018.45 1018.65 1018.67
1007.98 1008.87 1009.70 1010.45 1011.26 1011.96 1012.51 1012.95 1013.41 1013.80 1014.36 1014.85 1015.24 1015.57 1015.79 1015.90 1016.11 1016.38 1016.73 1016.85 1017.17 1017.47 1017.60 1018.06 1018.09 1018.22 1018.48 1018.77 1018.99 1019.20 1019.45 1019.55 1019.87 1019.49 1018.74 1018.41 1018.27 1017.97 1017.84 1018.16 1017.88 1017.87 1017.95
1007.18 1008.03 1008.87 1009.61 1010.38 1010.99 1011.57 1012.17 1012.80 1013.23 1013.71 1014.23 1014.65 1014.94 1015.16 1015.29 1015.49 1015.69 1015.85 1016.07 1016.30 1016.55 1016.76 1017.09 1017.22 1017.67 1017.88 1018.07 1018.23 1018.50 1018.63 1018.73 1019.00 1019.10 1018.41 1018.05 1017.71 1017.69 1017.63 1017.54 1017.34 1017.27 1017.16
1006.29 1007.22 1007.97 1008.63 1009.31 1009.97 1010.61 1011.27 1011.85 1012.39 1013.09 1013.46 1013.76 1014.10 1014.31 1014.50 1014.71 1015.03 1015.19 1015.37 1015.56 1015.79 1015.97 1016.18 1016.45 1016.79 1016.86 1017.12 1017.37 1017.47 1017.72 1018.15 1018.29 1018.23 1018.10 1017.73 1017.46 1017.01 1017.14 1017.09 1016.97 1016.86 1016.55
1005.46 1006.42 1006.94 1007.61 1008.43 1009.20 1009.73 1010.27 1010.83 1011.53 1011.91 1012.41 1012.84 1013.15 1013.39 1013.59 1013.85 1014.18 1014.36 1014.57 1014.85 1015.03 1015.13 1015.32 1015.48 1015.62 1015.71 1016.03 1016.47 1016.47 1016.85 1017.17 1017.23 1017.34 1017.07 1016.88 1016.68 1016.68 1016.36 1015.97 1016.14 1015.73 1015.28
1004.50 1005.11 1005.85 1006.97 1007.76 1008.26 1008.80 1009.41 1010.05 1010.59 1011.01 1011.57 1011.88 1012.09 1012.50 1012.55 1012.70 1012.97 1013.31 1013.72 1013.96 1014.20 1014.33 1014.39 1014.48 1014.71 1015.00 1015.13 1015.31 1015.32 1015.50 1015.89 1016.05 1016.17 1015.83 1015.79 1015.09 1015.02 1014.94 1015.06 1015.19 1015.30 1015.23
1003.43 1004.39 1005.37 1006.25 1006.92 1007.44 1008.04 1008.73 1009.27 1009.69 1010.20 1010.62 1010.88 1011.19 1011.36 1011.53 1011.74 1012.01 1012.41 1012.81 1013.10 1013.24 1013.33 1013.37 1013.59 1013.80 1014.06 1014.27 1014.41 1014.59 1014.58 1014.65 1014.57 1014.73 1014.59 1014.21 1013.80 1013.75 1013.84 1014.06 1014.01 1013.75 1013.45
1002.88 1003.69 1004.59 1005.35 1006.01 1006.77 1007.39 1007.83 1008.27 1008.75 1009.21 1009.54 1009.81 1010.10 1010.44 1010.47 1010.78 1011.21 1011.55 1012.09 1012.23 1012.19 1012.20 1012.34 1012.57 1012.73 1013.05 1013.35 1013.59 1013.65 1013.51 1013.33 1013.51 1013.61 1013.25 1012.44 1012.61 1012.40 1012.74 1012.93 1012.99 1013.23 1012.86
1002.29 1002.88 1003.58 1004.27 1004.99 1005.80 1006.36 1006.72 1006.99 1007.70 1008.20 1008.42 1008.59 1009.01 1009.35 1009.53 1009.83 1010.21 1010.92 1011.30 1011.28 1011.16 1011.21 1011.43 1011.60 1011.69 1012.05 1012.57 1012.83 1012.74 1012.39 1012.07 1011.83 1011.88 1011.74 1011.40 1011.43 1011.65 1012.03 1012.51 1012.82 1012.87 1012.34
1001.17 1001.61 1002.72 1003.65 1004.39 1004.87 1005.18 1005.71 1006.03 1006.71 1007.07 1007.42 1007.75 1007.97 1008.19 1008.48 1008.84 1009.29 1009.97 1010.31 1010.30 1010.38 1010.42 1010.41 1010.56 1010.80 1011.30 1011.64 1011.82 1011.73 1011.27 1011.13 1010.96 1010.95 1011.19 1011.28 1011.11 1010.84 1011.12 1011.52 1011.38 1011.66 1011.29
1000.65 1001.50 1002.28 1002.93 1003.50 1004.10 1004.72 1005.27 1005.63 1005.98 1006.38 1006.67 1006.83 1006.97 1007.23 1007.59 1007.90 1008.34 1008.92 1009.20 1009.23 1009.46 1009.31 1009.35 1009.49 1009.77 1010.07 1010.31 1010.50 1010.59 1010.29 1009.97 1010.08 1010.31 1010.21 1010.15 1010.10 1010.14 1010.07 1010.05 1010.38 1010.49 1010.25
1000.18 1000.81 1001.37 1001.80 1002.47 1003.16 1003.68 1004.21 1004.73 1005.22 1005.61 1005.84 1006.08 1006.23 1006.27 1006.48 1006.93 1007.37 1007.82 1008.13 1008.28 1008.41 1008.19 1008.29 1008.44 1008.70 1008.89 1009.18 1009.52 1009.53 1009.46 1009.73 1010.09 1009.99 1009.80 1009.65 1009.58 1009.29 1009.09 1009.10 1009.15 1009.06 1008.88
1000.35 1000.70 1001.03 1001.41 1001.77 1002.24 1002.88 1003.47 1004.09 1004.43 1004.71 1005.08 1005.29 1005.44 1005.50 1005.77 1006.05 1006.51 1006.89 1007.28 1007.57 1007.75 1007.29 1007.31 1007.49 1007.75 1008.11 1008.43 1008.73 1009.00 1009.39 1009.68 1009.73 1009.78 1009.47 1009.24 1008.95 1008.54 1008.49 1008.57 1008.58 1008.62 1008.89
1000.77 1001.01 1001.21 1001.55 1001.84 1002.11 1002.51 1003.04 1003.51 1003.76 1004.05 1004.31 1004.49 1004.65 1004.87 1005.07 1005.31 1005.79 1006.45 1006.71 1006.85 1007.04 1007.12 1007.00 1007.18 1007.43 1007.77 1008.05 1008.47 1008.70 1008.96 1009.18 1009.30 1009.31 1009.15 1008.78 1008.60 1008.48 1008.45 1008.43 1008.64 1008.99 1009.57
1001.15 1001.20 1001.31 1001.37 1001.67 1002.11 1002.59 1003.21 1003.23 1002.86 1003.21 1003.55 1003.56 1003.86 1004.09 1004.30 1004.47 1004.62 1005.04 1005.56 1005.80 1005.85 1006.14 1006.67 1007.09 1007.28 1007.57 1007.80 1007.97 1008.23 1008.48 1008.74 1008.92 1008.91 1008.89 1008.79 1008.61 1008.61 1008.62 1008.75 1008.98 1009.45 1010.05
1001.61 1001.45 1001.40 1001.45 1001.56 1001.79 1002.46 1003.34 1003.63 1003.58 1003.41 1003.25 1003.21 1003.25 1003.10 1003.21 1003.63 1004.00 1004.21 1004.47 1004.65 1005.25 1006.08 1006.23 1006.40 1006.65 1006.89 1007.22 1007.55 1007.87 1008.15 1008.42 1008.56 1008.63 1008.68 1008.67 1008.72 1008.87 1009.19 1009.30 1009.56 1010.07 1010.39
1002.04 1001.80 1001.49 1001.30 1001.33 1001.59 1002.14 1002.66 1003.27 1003.76 1003.61 1003.48 1003.33 1003.19 1003.29 1002.87 1003.31 1003.55 1003.80 1004.24 1004.98 1005.44 1005.49 1005.62 1005.75 1006.04 1006.39 1006.73 1007.13 1007.55 1007.87 1008.07 1008.15 1008.38 1008.58 1008.76 1008.85 1009.19 1009.52 1009.80 1009.99 1010.45 1010.94
1001.89 1001.66 1001.52 1001.22 1001.08 1001.06 1001.30 1001.69 1002.09 1002.61 1003.09 1003.32 1003.35 1003.31 1003.02 1002.98 1003.21 1003.46 1003.84 1004.43 1005.33 1005.22 1005.00 1005.13 1005.39 1005.72 1006.14 1006.62 1007.07 1007.29 1007.59 1007.87 1008.01 1008.19 1008.43 1008.57 1008.66 1009.05 1009.47 1009.91 1010.49 1010.65 1011.13
1001.60 1001.38 1001.13 1000.81 1000.53 1000.37 1000.41 1000.67 1001.05 1001.48 1002.07 1002.60 1003.21 1003.33 1003.45 1003.44 1003.47 1003.62 1003.69 1003.70 1004.13 1004.50 1004.71 1005.01 1005.23 1005.57 1005.99 1006.35 1006.69 1007.06 1007.37 1007.71 1007.73 1007.83 1008.10 1008.19 1008.35 1008.65 1009.13 1009.75 1010.40 1010.87 1011.46
1001.23 1000.80 1000.71 1000.55 1000.27 1000.03 999.96 1000.07 1000.55 1001.02 1001.53 1002.11 1002.61 1002.85 1003.23 1003.31 1003.44 1003.49 1003.47 1003.56 1003.77 1004.06 1004.39 1004.72 1005.09 1005.43 1005.78 1006.09 1006.53 1006.91 1007.26 1007.49 1007.60 1007.75 1007.88 1007.82 1008.02 1008.51 1008.65 1009.21 1010.23 1010.77 1011.42
1000.84 1000.27 1000.01 999.83 999.72 999.62 999.53 999.75 999.91 1000.29 1000.82 1001.42 1001.97 1002.39 1002.64 1002.65 1003.08 1003.33 1003.55 1003.63 1003.82 1004.16 1004.50 1004.77 1005.08 1005.27 1005.55 1006.00 1006.15 1006.57 1007.11 1007.31 1007.36 1007.65 1007.73 1007.94 1008.21 1008.55 1009.07 1009.42 1009.97 1010.19 1010.95
1000.32 999.66 999.21 999.01 998.91 998.91 998.78 999.03 999.47 999.84 1000.20 1000.77 1001.58 1002.32 1002.81 1002.87 1002.89 1003.15 1003.38 1003.62 1003.91 1004.12 1004.42 1004.74 1005.11 1005.34 1005.57 1005.83 1006.10 1006.48 1006.86 1007.17 1007.23 1007.41 1007.83 1007.96 1008.28 1008.81 1009.27 1009.72 1010.11 1010.36 1010.86
999.40 998.89 998.46 998.18 998.29 998.57 998.59 998.85 999.40 999.79 1000.22 1000.74 1001.39 1002.07 1002.73 1002.99 1003.07 1003.41 1003.71 1003.91 1004.18 1004.40 1004.59 1004.87 1005.15 1005.38 1005.52 1005.67 1005.88 1006.14 1006.47 1006.71 1006.81 1007.05 1007.36 1007.77 1008.21 1008.77 1009.34 1009.74 1010.07 1010.37 1010.66
998.35 997.97 998.09 998.17 998.31 998.48 998.73 999.05 999.43 999.90 1000.43 1000.92 1001.53 1002.05 1002.65 1003.41 1003.35 1003.82 1003.90 1004.21 1004.49 1004.80 1005.01 1005.17 1005.28 1005.39 1005.55 1005.70 1005.64 1005.68 1005.77 1005.95 1006.30 1006.55 1006.84 1007.35 1007.98 1008.46 1009.07 1009.66 1009.89 1010.23 1010.62
997.01 997.34 998.03 998.58 998.99 999.37 999.56 999.89 1000.07 1000.36 1001.01 1001.59 1002.10 1003.14 1003.65 1003.97 1004.35 1004.61 1004.99 1005.10 1005.31 1005.56 1005.95 1006.05 1006.08 1006.07 1006.23 1006.22 1006.09 1005.85 1005.97 1005.87 1005.74 1005.97 1006.39 1006.83 1007.11 1007.99 1008.75 1009.01 1009.33 1009.65 1010.09
997.77 998.11 998.88 999.51 1000.08 1000.07 1000.35 1000.75 1001.22 1001.47 1002.47 1003.03 1003.23 1003.50 1004.59 1005.74 1004.91 1005.82 1006.16 1006.30 1006.51 1006.71 1006.92 1007.05 1007.18 1007.19 1007.17 1007.07 1007.01 1006.77 1006.49 1006.29 1005.81 1005.83 1006.23 1006.70 1007.01 1007.48 1008.04 1008.31 1008.71 1009.02 1009.25
Wind_Speed
19 18 16 14 13 12 10 11 11 9 9 9 7 7 8 9 8 8 8 8 9 8 6 6 8 6 5 4 3 3 3 4 4 4 4 2 4 6 6 8 8 8 8
18 18 17 14 13 13 13 11 11 12 8 8 7 8 9 10 10 11 11 11 11 10 10 7 9 5 7 5 4 6 5 5 4 7 3 3 6 5 6 6 8 8 9
18 17 16 15 14 14 14 13 10 11 11 8 9 9 9 10 10 11 12 12 11 12 11 10 11 7 8 5 5 6 5 4 5 5 7 3 4 3 4 4 5 8 6
17 17 17 16 16 15 14 14 13 13 12 11 11 12 12 11 11 10 11 12 11 11 11 11 11 10 12 10 8 9 6 5 4 5 7 6 4 4 3 4 5 4 9
17 17 18 17 16 15 15 15 14 13 15 14 14 12 12 13 10 12 12 12 12 12 11 11 12 14 18 15 9 11 8 7 7 7 9 4 5 4 6 5 9 8 8
18 20 18 15 15 16 15 15 13 13 14 13 14 15 14 11 15 18 15 12 13 13 13 12 13 14 15 17 19 20 14 11 11 8 10 11 14 9 8 10 6 6 7
19 16 15 14 15 16 14 13 14 14 12 14 14 14 16 16 17 18 19 14 12 13 14 14 12 10 12 13 15 18 18 17 20 15 14 14 16 12 11 10 11 9 12
16 16 15 15 16 15 15 15 14 13 14 14 14 15 15 14 15 18 18 16 14 14 15 15 15 14 12 11 12 13 13 14 14 14 19 21 18 15 11 10 10 9 5
15 16 16 16 16 15 16 16 15 13 12 14 15 15 16 15 16 18 14 13 15 17 15 14 14 15 13 13 12 13 15 13 12 20 21 22 20 17 8 1 4 6 11
15 17 14 14 15 16 16 16 14 12 13 11 13 14 16 15 15 18 16 10 14 11 13 15 16 15 12 15 14 14 16 14 14 11 9 13 17 20 15 13 12 11 11
8 9 10 13 14 14 12 11 11 12 11 12 13 12 14 14 14 18 19 14 11 10 11 10 10 14 18 18 18 14 16 15 13 8 9 7 7 8 9 9 10 11 11
8 11 14 13 11 11 14 12 12 11 12 12 11 11 10 12 14 15 20 22 14 12 12 9 9 14 16 17 14 17 16 6 6 7 8 7 5 7 8 8 10 11 11
5 6 7 9 12 12 12 12 10 11 11 10 10 10 9 7 8 15 19 20 21 13 11 12 13 12 11 10 12 8 4 3 4 4 6 7 6 6 5 3 4 4 6
7 6 4 4 5 5 6 8 8 9 10 10 9 9 8 7 6 6 7 9 16 10 11 10 5 4 5 5 4 5 4 3 3 5 5 5 5 2 2 3 2 5 5
6 5 5 3 3 5 3 3 7 7 7 9 9 8 8 7 8 12 11 8 9 11 9 3 3 3 3 4 3 4 3 4 3 3 3 3 4 1 0 3 3 3 4
5 4 3 2 1 2 4 3 5 3 4 4 6 6 6 8 12 16 16 14 15 11 3 4 6 6 6 5 4 4 3 3 2 2 2 3 1 2 3 3 4 4 5
5 5 4 3 2 3 3 5 6 1 5 4 1 5 10 7 13 12 13 10 6 9 4 6 6 6 4 4 4 3 3 3 3 3 2 0 3 5 3 3 4 4 4
5 6 4 4 4 4 5 6 6 6 7 3 5 4 1 8 9 10 10 11 3 4 3 4 4 5 4 4 4 4 4 3 2 3 3 3 4 4 4 4 4 6 8
6 4 4 4 4 6 4 4 5 5 4 3 2 3 5 7 8 8 7 3 4 4 3 3 4 4 4 5 4 4 4 4 4 4 4 4 5 5 5 5 4 6 6
7 9 8 4 4 6 5 5 5 4 4 5 5 4 5 3 3 2 1 2 3 3 4 4 4 4 4 5 4 4 4 3 3 3 4 4 5 5 7 8 6 7 4
8 6 8 5 4 5 5 7 7 7 6 6 4 4 6 4 5 4 3 3 3 3 4 4 4 4 4 4 4 4 4 3 4 4 3 3 3 4 3 5 6 5 6
10 8 5 5 4 4 5 5 6 6 7 8 6 4 3 2 4 4 4 3 3 3 3 4 4 4 4 4 4 4 4 5 3 3 3 4 4 4 4 4 5 4 5
11 10 6 4 4 4 5 5 5 6 7 7 8 7 4 3 4 4 3 3 3 3 2 3 3 3 3 4 4 4 5 5 5 4 4 4 4 4 4 4 5 4 5
11 8 5 4 4 5 5 6 7 8 8 8 6 6 6 3 5 4 4 4 3 4 4 3 1 3 4 3 4 4 4 4 4 5 6 5 4 5 4 3 5 5 4
8 6 6 6 6 6 7 7 8 9 9 8 9 7 7 7 6 7 5 5 6 6 8 7 7 8 8 8 7 6 4 2 3 6 5 6 8 8 5 4 5 5 5
10 10 8 7 5 7 8 9 8 9 10 7 9 10 9 6 9 7 7 7 7 7 8 7 8 12 10 9 9 9 7 7 1 7 5 5 5 5 5 7 9 6 8
Wind_Direction
192 194 198 199 196 198 196 197 198 198 202 210 199 193 196 208 200 198 204 207 207 225 218 212 229 209 228 215 204 204 213 168 239 280 245 264 224 222 229 218 220 216 223
192 193 196 192 189 196 204 204 197 202 197 195 192 196 204 211 203 208 212 213 213 222 227 209 233 221 233 221 209 220 211 197 196 264 254 249 219 223 235 219 223 225 226
190 194 195 197 192 197 201 202 194 204 204 196 198 205 205 213 210 211 215 215 212 220 227 218 229 207 236 227 219 227 216 207 201 220 266 244 247 217 239 235 217 227 228
190 193 196 197 199 201 202 201 201 203 203 203 205 214 212 212 213 208 214 219 218 217 222 223 227 217 230 226 226 233 224 215 205 225 252 260 228 226 207 225 248 217 237
188 194 201 199 198 201 205 203 205 201 210 209 213 213 213 217 213 209 211 216 219 224 223 225 227 226 226 227 226 238 221 222 232 233 251 239 244 230 221 223 237 239 232
192 198 200 195 196 204 206 206 203 205 208 207 211 215 215 221 218 208 210 215 217 223 231 232 232 228 230 227 225 233 225 225 238 235 253 254 256 240 243 236 224 233 259
194 196 197 196 200 204 204 204 206 206 202 208 214 214 220 223 218 212 211 225 222 223 228 235 238 234 224 236 233 236 244 237 237 249 253 245 261 248 246 241 241 232 238
189 193 191 195 199 200 202 206 208 204 205 206 213 216 220 227 208 212 213 223 232 232 230 232 236 240 232 222 233 239 235 238 234 235 244 259 256 257 239 238 242 243 258
192 195 197 196 199 196 202 205 209 207 206 211 215 214 217 226 210 207 199 221 230 236 236 233 233 238 233 215 232 242 250 252 232 235 238 247 255 265 275 142 242 237 252
191 197 194 196 202 201 204 206 208 208 215 214 219 219 219 225 211 203 198 217 230 235 239 241 233 235 216 211 225 238 252 255 252 248 242 249 252 261 248 237 253 244 251
172 168 179 193 201 203 204 204 206 208 212 216 221 221 223 215 223 200 200 217 228 234 238 241 237 217 223 220 215 232 240 251 259 263 264 258 241 244 249 232 230 238 252
166 176 191 193 189 196 196 199 203 200 209 216 219 226 225 223 212 204 203 212 216 230 237 238 236 219 220 219 218 233 247 270 267 272 279 281 253 241 243 232 224 229 238
139 177 185 196 206 203 197 200 199 203 210 214 219 225 228 219 219 206 204 213 225 238 239 239 231 227 220 228 228 229 178 215 228 247 265 268 265 274 258 249 217 153 113
77 71 100 171 191 194 200 200 200 202 209 216 216 221 222 218 203 185 207 218 233 239 256 260 244 195 203 173 145 180 175 196 202 227 242 263 280 291 265 212 164 133 113
51 57 50 51 155 187 167 205 213 210 212 207 216 209 205 212 205 196 197 204 213 221 224 211 197 191 197 191 182 179 180 186 207 226 248 276 268 262 77 57 75 84 102
2 6 16 37 333 230 179 193 54 342 328 312 274 226 210 222 181 202 209 210 209 150 163 202 218 211 213 192 180 183 174 195 206 221 245 265 303 110 83 66 74 101 124
327 325 319 322 285 196 193 199 224 95 67 69 337 252 236 223 202 210 211 217 148 153 208 205 216 192 178 176 171 160 160 168 163 168 207 118 108 105 118 114 121 122 99
289 287 285 271 259 240 203 206 199 194 210 195 56 26 329 205 195 195 151 122 116 230 185 188 184 162 162 165 156 156 154 150 153 159 193 170 143 142 138 127 140 143 138
295 275 269 277 278 266 234 201 196 193 193 146 134 72 76 108 123 135 170 170 165 175 172 166 154 151 159 158 155 150 156 179 177 179 186 169 155 152 142 136 132 137 123
275 257 244 243 262 273 236 202 189 188 170 163 179 171 163 146 147 153 119 148 154 149 157 156 158 154 150 145 153 160 173 175 182 204 185 166 155 161 156 148 157 155 156
271 256 248 258 236 241 227 206 196 182 181 176 175 156 175 151 147 156 154 148 140 149 159 152 151 144 151 170 161 155 173 180 194 210 166 133 134 150 149 155 161 149 146
259 254 233 236 229 231 220 191 186 179 168 155 140 130 176 146 136 140 138 140 144 141 147 148 151 164 171 169 163 166 182 188 175 178 151 145 143 147 147 157 164 157 152
247 249 232 197 175 168 147 138 139 143 138 134 138 138 151 145 118 110 117 132 148 157 174 162 159 165 176 179 173 173 174 187 190 178 171 161 163 169 170 171 176 153 156
236 227 178 161 140 136 130 130 122 116 122 116 115 119 106 94 98 81 70 50 65 52 37 43 68 176 179 187 192 194 192 185 185 192 174 163 175 163 156 152 166 171 169
196 141 123 124 119 115 104 97 100 93 97 99 93 76 65 86 56 70 51 57 57 60 46 29 16 33 41 39 29 23 29 143 189 168 166 169 171 174 184 188 172 171 161
58 71 73 62 83 103 95 98 81 87 78 68 81 79 88 42 72 63 54 56 63 62 60 47 39 40 37 31 20 6 7 347 182 188 172 176 170 177 185 200 194 191 194